Regional Weather Roundup
Issued by NWS Sterling, VA

Home | Current Version | Previous Version | Text Only | Print | Product List | Glossary Off
Versions: 1 2 3 4 5 6 7 8 9 10 11 12 13 14 15 16 17 18 19 20 21 22 23 24 25 26 27

000
ASUS41 KLWX 281911
RWRLWX

REGIONAL WEATHER ROUNDUP
NATIONAL WEATHER SERVICE BALTIMORE MD/WASHINGTON DC
300 PM EDT SUN AUG 28 2016

Note: "FAIR" indicates few or no clouds below 12,000 feet
with no significant weather and/or obstructions to visibility.
 TC=TEMPERATURE CELSIUS

 * =Non NWS site. Station does not report precipitation (e.g. rain,
    snow, etc.), thunder, or fog.

DCZ001-MDZ009-015-VAZ040>042-051-053>054-282000-
WASHINGTON METRO

CITY           SKY/WX    TMP DP  RH WIND       PRES   REMARKS
WASHINGTON NAT MOSUNNY   90  59  35 VRB3      30.21F
DULLES         MOSUNNY   90  61  37 E9        30.21F HX  90
ANDREWS AFB    SUNNY     85  63  46 VRB6      30.21F
FT BELVOIR     SUNNY     88  65  45 VRB3      30.20F
QUANTICO       SUNNY     88  67  49 NE6       30.20F HX  91
COLLEGE PARK*  SUNNY     86  59  39 E5        30.21F
LEESBURG*      MOSUNNY   90  70  51 E7        30.22F HX  95
MANASSAS*      SUNNY     88  64  45 CALM      30.20F
GAITHERSBURG*  SUNNY     86  64  48 CALM      30.26F

$$

MDZ006>007-011-014-282000-
BALTIMORE METRO

CITY           SKY/WX    TMP DP  RH WIND       PRES   REMARKS
BWI AIRPORT    MOSUNNY   86  63  45 E6        30.21F
MD SCIENCE CTR   N/A     85  65  51 MISG      30.22F
MARTIN STATE   MOSUNNY   86  72  62 S3        30.23F HX  92
ANNAPOLIS      SUNNY     86  69  56 CALM      30.20F HX  90
FORT MEADE*    SUNNY    N/A N/A N/A SE6       30.24F

$$

MDZ012-015-019>023-282000-
MARYLAND EASTERN SHORE

CITY           SKY/WX    TMP DP  RH WIND       PRES   REMARKS
OCEAN CITY     SUNNY     83  69  62 E10       30.21F
SALISBURY      SUNNY     85  63  47 E10       30.20F
BAY BRIDGE AP* MOSUNNY   84  72  65 N7        30.21F
CAMBRIDGE*     MOSUNNY   86  64  48 SE5       30.20F
EASTON*        MOSUNNY   88  68  51 E7        30.24F HX  91

$$

MDZ017>025-282000-
SOUTHERN MARYLAND

CITY           SKY/WX    TMP DP  RH WIND       PRES   REMARKS
PATUXENT RIVER MOSUNNY   85  66  53 VRB5      30.20F
ST INIGOES     SUNNY     85  67  54 E8        30.19F
LEONARDTOWN*   MOSUNNY   82  64  54 CALM      30.22F

$$

MDZ003>005-282000-
NORTH CENTRAL MARYLAND

CITY           SKY/WX    TMP DP  RH WIND       PRES   REMARKS
FREDERICK*     MOSUNNY   88  72  58 CALM      30.24  HX  94
HAGERSTOWN APT SUNNY     88  61  40 VRB6      30.22F

$$

MDZ501>502-282000-
WESTERN MARYLAND

CITY           SKY/WX    TMP DP  RH WIND       PRES   REMARKS
OAKLAND*       MOSUNNY   79  64  61 CALM      30.32F
CUMBERLAND*    SUNNY     91  66  43 E8        30.22F HX  94

$$

VAZ025>031-282000-
SHENANDOAH VALLEY

CITY           SKY/WX    TMP DP  RH WIND       PRES   REMARKS
WINCHESTER*    SUNNY     90  64  43 E9        30.21F HX  91
FRONT ROYAL*   FAIR      88  68  51 E6        30.21F HX  91
LURAY*         FAIR      90  59  35 CALM      30.21F
NEW MARKET*    FAIR     N/A N/A N/A CALM      30.20F
STAUNTON*      SUNNY     87  64  46 W5        30.25F
WAYNESBORO*    FAIR      85  59  41 SE5       30.25F

$$

WVZ021-048>050-054>055-282000-
EASTERN WEST VIRGINIA PANHANDLE

CITY           SKY/WX    TMP DP  RH WIND       PRES   REMARKS
MARTINSBURG    SUNNY     87  66  49 CALM      30.21F
PETERSBURG*    SUNNY     93  70  46 NE6       30.19F HX  99

$$

VAZ036>039-050-282000-
CENTRAL FOOTHILLS

CITY           SKY/WX    TMP DP  RH WIND       PRES   REMARKS
CHARLOTTESVILL SUNNY     90  65  43 VRB5      30.21F HX  92
CULPEPER*      SUNNY     89  69  51 CALM      30.20F HX  94
ORANGE*          N/A     88  64  45 CALM      30.23F
GORDONSVILLE*  FAIR      88  70  55 E3        30.20F HX  92
WARRENTON*     FAIR      90  58  34 E3        30.20F

$$

VAZ055>057-282000-
NORTH AND CENTRAL PIEDMONT

CITY           SKY/WX    TMP DP  RH WIND       PRES   REMARKS
FREDERICKSBRG*   N/A     88  68  51 NE8       30.19F HX  91
STAFFORD*      SUNNY     89  63  42 E6        30.24F HX  90

$$

NCZ024-NYZ072-PAZ021-071-VAZ022-071-282000-
OTHER REGIONAL OBSERVATIONS

CITY           SKY/WX    TMP DP  RH WIND       PRES   REMARKS
NEW YORK CITY  SUNNY     86  60  41 VRB3      30.24F
PHILADELPHIA   MOSUNNY   88  62  41 MISG      30.21F
PITTSBURGH     PTSUNNY   86  71  60 W6        30.20F HX  91
ROANOKE        MOSUNNY   89  64  43 CALM      30.23F HX  90
RICHMOND       MOSUNNY   89  66  46 E13       30.18F HX  91
RALEIGH        MOSUNNY   89  65  44 NE12G17   30.17F HX  91

$$

ANZ530>537-282000-
MARINE OBSERVATIONS

STATION/POSITION TIME  TEMP    WIND        PRES
                       AIR SEA DIR/SP/G
                 (UTC) (F)     (DEG/KT/KT) (MB)
THOMAS PT LIGHT  1900   81 83  360/  7/  8 1024.1F
BALT KEY BRIDGE  1836   81     120/  5/  5 1023.5F
COVE POINT       1836   80     350/ 10/ 12 1023.5F
LEWISETTA        1836   81 84   50/  4/  5 1022.4F
SOLOMONS ISLAND  1836   82 84  130/  5/  5   N/A
PINEY POINT      1848          110/  6/  7   N/A

$$





USA.gov is the U.S. government's official web portal to all federal, state and local government web resources and services.